DL1DUR-2 Weather Reports


time (UTC)temp
F
wind
direction
speed
knots
gust
knots
rain 1hr
in
rain 24hr
in
rain mn
in
humidity
%
barometer
mb
20260507203704 47 19 1.7 6.1 0.00 0.77 0.77 97 1016.3
20260507203205 47 45 1.7 6.1 0.00 0.77 0.77 97 1016.2
20260507202704 47 338 1.7 6.1 0.00 0.77 0.77 97 1016.2
20260507202204 47 69 1.7 4.3 0.00 0.77 0.77 97 1016.1
20260507201204 47 68 1.7 4.3 0.00 0.77 0.77 97 1016.1
20260507200204 47 37 1.7 5.2 0.00 0.77 0.77 97 1016.0
20260507195704 47 44 1.7 5.2 0.00 0.77 0.77 97 1016.0
20260507195205 47 15 1.7 4.3 0.00 0.77 0.77 96 1016.0
20260507194704 47 32 1.7 4.3 0.00 0.77 0.77 96 1015.9
20260507193705 47 28 1.7 4.3 0.00 0.77 0.77 96 1015.8
20260507192704 48 55 1.7 4.3 0.00 0.77 0.77 96 1015.7
20260507192205 48 19 1.7 4.3 0.00 0.77 0.77 96 1015.5
20260507191204 48 38 0.9 5.2 0.00 0.77 0.77 96 1015.5
20260507190204 48 78 1.7 7.0 0.00 0.77 0.77 96 1015.3
20260507185704 48 41 1.7 6.1 0.00 0.77 0.77 96 1015.3
20260507185204 48 5 1.7 5.2 0.00 0.77 0.77 96 1015.2
20260507184704 48 32 2.6 5.2 0.00 0.77 0.77 96 1015.2
20260507184204 48 343 2.6 6.1 0.00 0.77 0.77 96 1015.1
20260507183705 48 22 2.6 6.1 0.00 0.77 0.77 96 1015.1
20260507183204 48 5 2.6 7.0 0.00 0.77 0.77 96 1015.0
20260507182204 48 67 2.6 7.0 0.00 0.77 0.77 96 1015.1
20260507181704 48 54 1.7 4.3 0.00 0.77 0.77 96 1015.0
20260507181204 48 43 0.9 5.2 0.00 0.77 0.77 96 1014.9
20260507180704 48 66 1.7 5.2 0.00 0.77 0.77 96 1014.8
20260507175704 49 57 1.7 5.2 0.00 0.77 0.77 96 1014.8
20260507175204 49 19 1.7 5.2 0.00 0.77 0.77 96 1014.7
20260507174705 49 19 2.6 6.1 0.00 0.77 0.77 96 1014.6
20260507174204 49 30 1.7 6.1 0.00 0.77 0.77 96 1014.6
20260507173704 49 5 1.7 6.1 0.00 0.77 0.77 96 1014.6
20260507171704 49 60 1.7 4.3 0.01 0.77 0.77 96 1014.4
20260507170704 49 92 0.9 5.2 0.01 0.77 0.77 96 1014.1
20260507165704 49 49 1.7 5.2 0.01 0.77 0.77 96 1014.2
20260507165203 49 42 1.7 5.2 0.01 0.77 0.77 96 1014.1
20260507164704 49 88 0.9 4.3 0.01 0.77 0.77 96 1014.2
20260507164204 49 93 0.9 4.3 0.01 0.77 0.77 96 1014.2
20260507163704 49 355 1.7 4.3 0.01 0.77 0.77 96 1014.1
20260507163204 49 66 1.7 4.3 0.01 0.76 0.76 96 1014.0
20260507162704 50 51 0.9 5.2 0.01 0.76 0.76 96 1013.9
20260507162204 50 55 1.7 5.2 0.01 0.76 0.76 96 1013.9
20260507161704 50 9 1.7 5.2 0.01 0.76 0.76 96 1013.9
20260507161204 50 15 1.7 5.2 0.01 0.76 0.76 96 1013.9
20260507160704 50 67 1.7 5.2 0.01 0.76 0.76 96 1014.0
20260507160204 50 68 1.7 5.2 0.01 0.76 0.76 96 1013.9
20260507155704 50 48 1.7 5.2 0.01 0.76 0.76 96 1014.0
20260507155204 50 35 1.7 5.2 0.01 0.76 0.76 96 1013.8
20260507154704 50 80 1.7 3.5 0.01 0.76 0.76 96 1013.8
20260507154204 50 24 1.7 3.5 0.01 0.76 0.76 96 1013.8
20260507153705 50 70 1.7 5.2 0.01 0.76 0.76 96 1013.6
20260507153204 50 69 2.6 5.2 0.00 0.76 0.76 96 1013.6
20260507152704 50 38 1.7 4.3 0.00 0.76 0.76 96 1013.6
20260507152205 50 46 0.9 4.3 0.00 0.76 0.76 96 1013.5
20260507151204 51 34 1.7 3.5 0.00 0.76 0.76 96 1013.5
20260507150704 51 106 1.7 4.3 0.00 0.76 0.76 96 1013.4
20260507150204 51 117 1.7 4.3 0.00 0.76 0.76 96 1013.4
20260507145704 51 50 1.7 4.3 0.00 0.76 0.76 96 1013.3
20260507145204 51 0 0.9 3.5 0.00 0.76 0.76 96 1013.4
20260507144704 51 43 0.9 4.3 0.00 0.76 0.76 96 1013.4
20260507144204 51 80 1.7 4.3 0.00 0.76 0.76 96 1013.4
20260507143704 51 46 1.7 4.3 0.00 0.76 0.76 96 1013.3
20260507143204 51 46 0.9 2.6 0.00 0.76 0.76 96 1013.3
20260507142704 51 53 0.9 3.5 0.00 0.76 0.76 96 1013.1
20260507142204 51 88 0.9 3.5 0.00 0.76 0.76 96 1013.1
20260507141707 51 78 0.9 3.5 0.00 0.76 0.76 96 1013.1
20260507141204 51 40 0.9 3.5 0.00 0.76 0.76 96 1013.3
20260507140704 51 47 0.9 3.5 0.00 0.76 0.76 96 1013.2
20260507135704 51 46 0.9 4.3 0.00 0.76 0.76 96 1013.1
20260507135204 51 83 0.9 4.3 0.00 0.76 0.76 96 1013.1
20260507134704 51 68 1.7 4.3 0.01 0.76 0.76 96 1013.1
20260507133704 51 46 1.7 4.3 0.01 0.76 0.76 96 1013.0
20260507133204 51 68 1.7 3.5 0.01 0.76 0.76 96 1012.9
20260507132704 51 36 0.9 3.5 0.02 0.76 0.76 96 1013.0
20260507132204 51 24 0.9 3.5 0.02 0.76 0.76 96 1013.0
20260507131704 51 0 1.7 4.3 0.03 0.76 0.76 96 1013.0
20260507131205 51 138 1.7 4.3 0.04 0.76 0.76 96 1012.9
20260507130704 51 94 1.7 4.3 0.06 0.76 0.76 96 1012.8
20260507130204 51 38 1.7 4.3 0.06 0.76 0.76 96 1012.8
20260507125704 51 0 1.7 4.3 0.07 0.76 0.76 96 1012.8
20260507125204 51 42 1.7 4.3 0.08 0.76 0.76 96 1012.7
20260507124705 51 67 1.7 4.3 0.08 0.75 0.75 96 1012.7
20260507122205 51 26 1.7 4.3 0.06 0.72 0.72 96 1012.4
20260507121707 51 67 1.7 4.3 0.06 0.72 0.72 96 1012.3
20260507121204 51 67 0.9 4.3 0.05 0.71 0.71 96 1012.4
20260507120704 51 100 0.9 2.6 0.04 0.70 0.70 96 1012.4
20260507120204 51 24 0.9 3.5 0.03 0.69 0.69 96 1012.5
20260507114704 51 40 0.9 4.3 0.01 0.67 0.67 96 1012.2
20260507114205 51 67 0.9 6.1 0.01 0.67 0.67 96 1012.2
20260507113704 51 76 1.7 6.1 0.01 0.67 0.67 96 1012.2
20260507113204 51 76 1.7 6.1 0.00 0.66 0.66 96 1012.0
20260507112704 51 132 0.9 4.3 0.00 0.66 0.66 96 1012.0
20260507110704 51 36 1.7 3.5 0.00 0.66 0.66 96 1011.9
20260507110204 51 94 0.9 3.5 0.01 0.66 0.66 96 1011.8
20260507105704 51 82 1.7 5.2 0.02 0.66 0.66 96 1011.7
20260507105204 51 76 1.7 5.2 0.02 0.66 0.66 96 1011.7
20260507104706 51 79 2.6 5.2 0.03 0.66 0.66 96 1011.7
20260507104204 51 107 1.7 5.2 0.04 0.66 0.66 96 1011.7
20260507103704 51 76 1.7 5.2 0.04 0.66 0.66 96 1011.7
20260507103205 51 112 2.6 5.2 0.04 0.66 0.66 96 1011.6
20260507102704 51 59 2.6 4.3 0.04 0.66 0.66 96 1011.5
20260507102204 51 88 1.7 4.3 0.04 0.66 0.66 96 1011.6
20260507101704 51 53 1.7 4.3 0.04 0.66 0.66 96 1011.5
20260507100204 51 74 1.7 2.6 0.03 0.65 0.65 96 1011.4
20260507095704 51 98 1.7 2.6 0.02 0.65 0.65 96 1011.3
20260507095204 51 96 0.9 3.5 0.02 0.64 0.64 96 1011.4
20260507094704 51 59 0.9 4.3 0.00 0.62 0.62 96 1011.3
20260507094204 51 32 1.7 4.3 0.00 0.62 0.62 96 1011.3
20260507093704 51 35 1.7 4.3 0.00 0.62 0.62 96 1011.3
20260507093204 51 69 1.7 4.3 0.00 0.62 0.62 96 1011.2
20260507092704 51 87 1.7 4.3 0.00 0.62 0.62 96 1011.1
20260507092205 51 81 1.7 3.5 0.00 0.62 0.62 96 1011.1
20260507091704 51 30 1.7 3.5 0.01 0.62 0.62 96 1011.1
20260507091204 51 53 0.9 4.3 0.02 0.62 0.62 96 1011.0
20260507090704 51 76 1.7 4.3 0.03 0.62 0.62 96 1011.0
20260507090205 51 30 1.7 4.3 0.05 0.62 0.62 96 1010.9
20260507085704 51 17 2.6 5.2 0.06 0.62 0.62 96 1010.9
20260507085204 51 102 2.6 5.2 0.06 0.62 0.62 96 1010.8
20260507084704 51 74 1.7 4.3 0.07 0.62 0.62 96 1010.8
20260507084204 52 11 1.7 4.3 0.08 0.62 0.62 96 1010.7
20260507083704 52 66 0.9 3.5 0.08 0.62 0.62 96 1010.7
20260507083205 51 61 0.9 3.5 0.08 0.62 0.62 96 1010.4
20260507082704 51 0 0.9 3.5 0.08 0.62 0.62 96 1010.4
20260507082204 51 72 0.9 4.3 0.08 0.62 0.62 96 1010.4
20260507081704 51 107 1.7 4.3 0.07 0.61 0.61 96 1010.3
20260507081204 51 89 1.7 4.3 0.06 0.60 0.60 96 1010.1
20260507080204 51 45 0.9 4.3 0.03 0.57 0.57 96 1010.1
20260507075204 51 326 1.7 5.2 0.01 0.55 0.55 96 1010.1
20260507074704 51 23 1.7 5.2 0.01 0.55 0.55 96 1010.1
20260507074204 51 5 1.7 4.3 0.00 0.54 0.54 96 1010.0
20260507073704 51 47 0.9 4.3 0.00 0.54 0.54 96 1010.0
20260507073204 51 78 0.9 4.3 0.00 0.54 0.54 96 1009.9
20260507072704 51 13 0.9 4.3 0.00 0.54 0.54 96 1009.8
20260507072204 51 38 1.7 4.3 0.00 0.54 0.54 96 1009.8
20260507071704 51 22 1.7 5.2 0.00 0.54 0.54 96 1009.8
20260507071204 51 0 2.6 5.2 0.00 0.54 0.54 96 1009.7
20260507070705 51 30 1.7 5.2 0.00 0.54 0.54 96 1009.6
20260507070204 51 61 1.7 5.2 0.00 0.54 0.54 96 1009.5
20260507065705 51 19 1.7 5.2 0.00 0.54 0.54 97 1009.5
20260507065204 51 31 1.7 4.3 0.00 0.54 0.54 97 1009.5
20260507064704 51 355 1.7 4.3 0.00 0.54 0.54 97 1009.5
20260507064204 51 22 0.9 2.6 0.00 0.54 0.54 96 1009.4
20260507063706 51 53 0.9 3.5 0.00 0.54 0.54 96 1009.4
20260507062704 51 74 1.7 4.3 0.00 0.54 0.54 96 1009.2
20260507062204 51 78 1.7 3.5 0.00 0.54 0.54 97 1009.2
20260507061704 51 20 1.7 4.3 0.00 0.54 0.54 97 1009.2
20260507060204 51 113 1.7 3.5 0.00 0.54 0.54 96 1008.9
20260507055704 50 99 2.6 4.3 0.00 0.54 0.54 96 1008.9
20260507055204 50 82 2.6 4.3 0.00 0.54 0.54 96 1009.1
20260507054705 50 101 1.7 4.3 0.00 0.54 0.54 96 1008.9
20260507054204 50 92 1.7 4.3 0.00 0.54 0.54 96 1008.8
20260507053704 50 86 1.7 4.3 0.00 0.54 0.54 96 1008.8
20260507053204 50 150 0.9 4.3 0.00 0.54 0.54 96 1008.8
20260507052704 50 123 0.0 1.7 0.01 0.54 0.54 96 1008.6
20260507051704 50 106 0.0 0.9 0.02 0.54 0.54 96 1008.6
20260507051205 50 173 0.0 2.6 0.04 0.54 0.54 96 1008.5
20260507050704 50 134 0.0 2.6 0.05 0.54 0.54 96 1008.5
20260507050204 50 200 0.9 2.6 0.06 0.54 0.54 96 1008.5
20260507045704 50 153 0.9 2.6 0.07 0.54 0.54 96 1008.3
20260507045205 50 150 0.0 2.6 0.08 0.54 0.54 96 1008.3
20260507044705 50 127 0.0 0.0 0.09 0.54 0.54 96 1008.3
20260507044205 50 169 0.0 1.7 0.09 0.54 0.54 96 1008.3
20260507043704 50 69 0.0 1.7 0.09 0.54 0.54 96 1008.4
20260507043204 50 54 0.0 1.7 0.11 0.54 0.54 96 1008.3
20260507042704 50 76 0.0 2.6 0.10 0.54 0.54 96 1008.3
20260507042204 50 24 0.0 2.6 0.09 0.52 0.52 96 1008.4
20260507041204 51 62 0.9 3.5 0.10 0.50 0.50 96 1008.2
20260507040704 51 17 0.9 3.5 0.11 0.50 0.50 96 1008.1
20260507040204 51 355 0.9 2.6 0.09 0.48 0.48 96 1008.1
20260507035705 51 19 0.9 2.6 0.09 0.46 0.46 96 1008.1
20260507034704 51 38 0.9 2.6 0.08 0.46 0.46 96 1008.2
20260507033204 51 34 0.9 3.5 0.06 0.43 0.43 95 1008.0
20260507032704 51 16 0.9 3.5 0.05 0.43 0.43 95 1008.0
20260507032203 51 26 0.9 4.3 0.04 0.42 0.42 95 1007.9
20260507031704 51 38 1.7 4.3 0.03 0.41 0.39 95 1007.9
20260507030704 51 76 0.9 2.6 0.01 0.39 0.39 95 1007.9
20260507030204 51 92 0.0 2.6 0.01 0.39 0.39 95 1007.9
20260507025704 51 54 0.9 1.7 0.00 0.38 0.38 95 1007.8
20260507024704 51 0 0.0 2.6 0.00 0.38 0.38 95 1007.7
20260507024204 51 36 0.9 2.6 0.01 0.38 0.38 95 1007.7
20260507023705 51 58 0.9 4.3 0.01 0.38 0.38 95 1007.6
20260507023204 51 23 0.9 5.2 0.01 0.38 0.38 95 1007.8
20260507022204 52 24 2.6 6.1 0.01 0.38 0.38 95 1007.7
20260507021704 52 50 1.7 7.8 0.01 0.38 0.38 95 1007.7
20260507021204 52 11 1.7 8.7 0.02 0.38 0.38 95 1007.6
20260507020704 52 350 3.5 8.7 0.02 0.38 0.38 94 1007.6
20260507020204 53 37 3.5 7.0 0.02 0.38 0.38 95 1007.6
20260507015704 53 16 2.6 5.2 0.02 0.38 0.38 95 1007.5
20260507015203 53 28 2.6 6.1 0.03 0.38 0.38 95 1007.7
20260507014704 53 46 2.6 6.1 0.04 0.37 0.37 95 1007.6
20260507013704 54 31 1.7 6.1 0.06 0.38 0.37 95 1007.5
20260507012704 54 316 1.7 4.3 0.12 0.38 0.37 95 1007.4
20260507012204 54 21 1.7 4.3 0.14 0.38 0.37 95 1007.1
20260507011707 54 247 1.7 3.5 0.17 0.38 0.37 95 1007.0
20260507011204 54 0 1.7 3.5 0.20 0.37 0.36 95 1007.0
20260507010704 54 36 1.7 3.5 0.26 0.37 0.36 95 1007.1
20260507010204 54 338 1.7 2.6 0.27 0.36 0.35 95 1007.0
20260507005704 54 311 0.9 2.6 0.28 0.36 0.35 95 1007.0
20260507005204 54 12 1.7 2.6 0.26 0.35 0.34 95 1007.0
20260507004704 54 290 1.7 2.6 0.25 0.33 0.32 94 1007.0
20260507004204 54 274 0.9 1.7 0.24 0.32 0.31 94 1007.0
20260507003704 54 276 0.9 2.6 0.22 0.31 0.29 94 1006.9
20260507003205 55 276 0.9 2.6 0.21 0.29 0.28 94 1006.8
20260507002204 55 311 0.9 5.2 0.15 0.24 0.21 94 1006.9
20260507001704 55 355 0.9 5.2 0.13 0.22 0.19 94 1006.7
20260507001204 55 23 1.7 5.2 0.07 0.17 0.13 94 1006.7
20260507000704 55 319 0.9 2.6 0.04 0.15 0.09 94 1006.7
20260507000205 55 329 0.9 2.6 0.02 0.13 0.09 93 1006.6
20260506235704 55 24 0.9 2.6 0.02 0.13 0.08 93 1006.7
20260506235204 55 34 0.9 2.6 0.02 0.14 0.08 93 1006.7
20260506234704 55 338 0.9 3.5 0.02 0.14 0.07 93 1006.6
20260506233204 56 19 0.9 2.6 0.04 0.17 0.06 93 1006.6
20260506232704 56 327 0.9 2.6 0.06 0.20 0.06 93 1006.6
20260506232205 56 330 0.9 2.6 0.06 0.21 0.06 92 1006.5
20260506231204 56 5 0.0 1.7 0.06 0.22 0.06 92 1006.5
20260506225704 56 56 0.0 2.6 0.06 0.24 0.06 91 1006.6
20260506225204 56 57 0.9 3.5 0.06 0.24 0.06 90 1006.5
20260506224204 56 43 0.9 3.5 0.04 0.25 0.04 90 1006.7
20260506223704 56 90 0.9 4.3 0.03 0.24 0.03 92 1006.7
20260506223204 56 77 0.9 4.3 0.02 0.24 0.02 89 1006.7
20260506222704 56 32 1.7 4.3 0.00 0.24 0.00 89 1006.7
20260506222204 56 17 0.9 4.3 0.00 0.26 0.00 89 1006.7
20260506221705 57 14 1.7 4.3 0.00 0.28 0.00 89 1006.8
20260506221204 57 42 1.7 3.5 0.00 0.28 0.00 89 1006.8
20260506220705 57 42 1.7 3.5 0.00 0.29 0.00 89 1006.7
20260506220204 57 355 1.7 3.5 0.00 0.30 0.30 89 1006.7
20260506215707 57 344 0.9 4.3 0.00 0.31 0.30 88 1006.7
20260506214704 57 53 1.7 4.3 0.00 0.31 0.30 88 1006.7
20260506214204 57 355 1.7 4.3 0.00 0.31 0.30 88 1006.7
20260506213704 57 15 1.7 4.3 0.00 0.31 0.30 88 1006.6
20260506213205 57 269 1.7 7.8 0.00 0.31 0.30 88 1006.5
20260506212704 57 10 1.7 7.8 0.00 0.31 0.30 88 1006.7
20260506212206 57 81 2.6 7.8 0.00 0.31 0.30 88 1006.6
20260506211204 58 121 2.6 6.1 0.00 0.31 0.30 88 1006.3
20260506210704 58 92 2.6 6.1 0.00 0.31 0.30 88 1006.4
20260506210204 58 62 1.7 4.3 0.00 0.31 0.30 88 1006.4
20260506205704 58 22 1.7 4.3 0.00 0.31 0.30 88 1006.3
20260506205204 58 69 1.7 3.5 0.00 0.31 0.30 88 1006.2
20260506204704 58 43 0.9 3.5 0.00 0.31 0.30 88 1006.3
20260506204205 58 60 0.9 3.5 0.00 0.31 0.30 88 1006.4